This is the latest recevied weather packets stored in our database for station/object WC4PEM. If no packets are shown the sender has not sent any weather packets the latest 10 day(s).
| Time | Temp. | Humidity | Pressure | Rain* | Wind** | Luminosity | Snow |
|---|---|---|---|---|---|---|---|
| 1777918170 | 27.78° C | 52% | 1015.1 hPa | 0 mm | - | - | - |
| 1777917870 | 28.33° C | 51% | 1015.2 hPa | 0 mm | - | - | - |
| 1777917661 | 28.33° C | 51% | 1015.3 hPa | 0 mm | - | - | - |
| 1777917570 | 28.33° C | 51% | 1015.3 hPa | 0 mm | - | - | - |
| 1777917270 | 28.89° C | 49% | 1015.4 hPa | 0 mm | - | - | - |
| 1777916970 | 29.44° C | 48% | 1015.5 hPa | 0 mm | - | - | - |
| 1777916670 | 29.44° C | 48% | 1015.5 hPa | 0 mm | - | - | - |
| 1777916370 | 29.44° C | 49% | 1015.5 hPa | 0 mm | - | - | - |
| 1777916070 | 28.89° C | 49% | 1015.6 hPa | 0 mm | - | - | - |
| 1777915770 | 28.89° C | 50% | 1015.6 hPa | 0 mm | - | - | - |
| 1777915470 | 28.33° C | 50% | 1015.5 hPa | 0 mm | - | - | - |
| 1777915170 | 28.33° C | 49% | 1015.6 hPa | 0 mm | - | - | - |
| 1777914870 | 28.33° C | 49% | 1015.5 hPa | 0 mm | - | - | - |
| 1777914611 | 28.89° C | 48% | 1015.7 hPa | 0 mm | - | - | - |
| 1777914570 | 28.33° C | 50% | 1015.7 hPa | 0 mm | - | - | - |
| 1777914270 | 28.89° C | 48% | 1015.7 hPa | 0 mm | - | - | - |
| 1777913970 | 28.89° C | 47% | 1016 hPa | 0 mm | - | - | - |
| 1777913813 | 28.89° C | 47% | 1016 hPa | 0 mm | - | - | - |
| 1777913670 | 28.89° C | 47% | 1016 hPa | 0 mm | - | - | - |
| 1777913370 | 28.89° C | 48% | 1015.9 hPa | 0 mm | - | - | - |
| 1777913070 | 28.89° C | 47% | 1016.1 hPa | 0 mm | - | - | - |
| 1777912944 | 28.89° C | 48% | 1016 hPa | 0 mm | - | - | - |
| 1777912874 | 28.89° C | 46% | 1016.2 hPa | 0 mm | - | - | - |
| 1777912770 | 28.89° C | 48% | 1016 hPa | 0 mm | - | - | - |
| 1777912470 | 28.89° C | 46% | 1016.2 hPa | 0 mm | - | - | - |
* Rain latest hour (hover to see other rain measurements)
** Current wind speed in m/s (hover to see current wind gust speed)